User: anonymous   Login
Location: Unspecified
(0.0000°N, 0.0000°E)
Time: 15:26:07
(UTC+00:00)
Language:

CP3 - Orbit

View from above orbital plane
View from above orbital plane
View from above satellite
View from above satellite

Ground track
Ground track

The orbit data is extracted from the following two-line orbital elements,

1 31129U 07012N   17229.34254094  .00000151  00000-0  42254-4 0  9996
2 31129  98.0831 177.2860 0095959   7.8014 352.4650 14.56533886548411
Epoch (UTC): 17 August 2017 08:13:15
Eccentricity: 0.0095959
inclination: 98.0831°
perigee height: 636 km
apogee height: 772 km
right ascension of ascending node: 177.2860°
argument of perigee: 7.8014°
revolutions per day: 14.56533886
mean anomaly at epoch: 352.4650°
orbit number at epoch: 54841

The dashed part of the orbit path shows where the satellite is in the earth's shadow,  

DLR